KK4OHF Weather Reports


time (UTC)temp
C
wind
direction
speed
KPH
gust
KPH
rain 1hr
cm
rain 24hr
cm
rain mn
cm
humidity
%
barometer
mb
20260905154505 33 5 1.6 4.8 0.00 0.00 0.00 57 1014.5
20260905154005 33 280 3.2 4.8 0.00 0.00 0.00 59 1014.6
20260905153005 32 348 3.2 9.7 0.00 0.00 0.00 60 1014.5
20260905152505 32 10 1.6 4.8 0.00 0.00 0.00 62 1014.5
20260905152006 32 344 3.2 4.8 0.00 0.00 0.00 63 1014.5
20260905151505 32 356 3.2 4.8 0.00 0.00 0.00 61 1014.5
20260905150505 32 353 1.6 4.8 0.00 0.00 0.00 62 1014.5
20260905150005 32 28 3.2 4.8 0.00 0.00 0.00 62 1014.7
20260905145005 31 289 1.6 8.0 0.00 0.00 0.00 62 1014.7
20260905144506 32 279 3.2 8.0 0.00 0.00 0.00 61 1014.7
20260905144006 32 250 1.6 4.8 0.00 0.00 0.00 64 1014.7
20260905143505 31 254 1.6 4.8 0.00 0.00 0.00 67 1014.7
20260905142005 30 227 1.6 4.8 0.00 0.00 0.00 68 1014.7
20260905141505 30 237 1.6 3.2 0.00 0.00 0.00 69 1014.7
20260905141005 30 259 0.0 3.2 0.00 0.00 0.00 71 1014.7
20260905140505 30 253 0.0 3.2 0.00 0.00 0.00 71 1014.7
20260905135505 28 237 1.6 4.8 0.00 0.00 0.00 73 1014.7
20260905135005 28 252 3.2 8.0 0.00 0.00 0.00 76 1014.7
20260905134505 27 260 3.2 4.8 0.00 0.00 0.00 81 1014.7
20260905134005 26 293 0.0 4.8 0.00 0.00 0.00 88 1014.9
20260905133505 25 284 1.6 4.8 0.00 0.00 0.00 89 1014.9
20260905133005 24 248 1.6 3.2 0.00 0.00 0.00 89 1014.9
20260905132505 23 289 0.0 4.8 0.00 0.00 0.00 89 1014.9
20260905132005 23 250 1.6 3.2 0.00 0.00 0.00 89 1015.0
20260905131504 23 250 1.6 3.2 0.00 0.00 0.00 89 1015.1
20260905131005 23 250 1.6 4.8 0.00 0.00 0.00 89 1015.2
20260905130505 23 245 0.0 1.6 0.00 0.00 0.00 89 1015.2
20260905130005 23 245 1.6 4.8 0.00 0.00 0.00 89 1015.2
20260905125505 22 293 3.2 4.8 0.00 0.00 0.00 89 1015.2
20260905125005 22 214 1.6 3.2 0.00 0.00 0.00 89 1015.1
20260905124505 22 214 1.6 4.8 0.00 0.00 0.00 89 1015.1
20260905123505 22 214 1.6 3.2 0.00 0.00 0.00 89 1015.2
20260905123005 22 214 0.0 1.6 0.00 0.00 0.00 90 1014.8
20260905122504 22 214 0.0 0.0 0.00 0.00 0.00 89 1014.8
20260905122005 21 214 0.0 0.0 0.00 0.00 0.00 90 1014.8
20260905121505 21 214 0.0 0.0 0.00 0.00 0.00 90 1014.8
20260905121005 21 214 0.0 0.0 0.00 0.00 0.00 90 1014.7
20260905120505 21 214 0.0 0.0 0.00 0.00 0.00 90 1014.7
20260905120005 21 214 0.0 0.0 0.00 0.00 0.00 90 1014.7
20260905115505 21 214 0.0 0.0 0.00 0.00 0.00 90 1014.7
20260905115006 21 214 0.0 0.0 0.00 0.00 0.00 90 1014.6
20260905114005 21 214 0.0 0.0 0.00 0.00 0.00 90 1014.4
20260905113006 21 214 0.0 1.6 0.00 0.00 0.00 90 1014.4
20260905112005 21 214 0.0 1.6 0.00 0.00 0.00 90 1014.2
20260905111505 21 214 0.0 1.6 0.00 0.00 0.00 90 1014.2
20260905111006 21 214 0.0 0.0 0.00 0.00 0.00 90 1014.2
20260905110505 21 214 0.0 1.6 0.00 0.00 0.00 90 1014.2
20260905110005 21 214 0.0 0.0 0.00 0.00 0.00 90 1014.1
20260905105505 21 214 0.0 0.0 0.00 0.00 0.00 90 1014.1
20260905105005 21 214 0.0 0.0 0.00 0.00 0.00 90 1014.1
20260905104505 21 214 0.0 0.0 0.00 0.00 0.00 90 1014.1
20260905104005 21 214 0.0 0.0 0.00 0.00 0.00 90 1014.1
20260905103505 21 214 0.0 0.0 0.00 0.00 0.00 90 1014.1
20260905103006 21 214 0.0 0.0 0.00 0.00 0.00 90 1014.1
20260905102505 21 214 0.0 0.0 0.00 0.00 0.00 90 1014.1
20260905102006 22 214 0.0 1.6 0.00 0.00 0.00 90 1014.0
20260905101506 22 214 0.0 1.6 0.00 0.00 0.00 90 1014.0
20260905101005 22 214 0.0 1.6 0.00 0.00 0.00 90 1013.9
20260905100505 22 214 0.0 0.0 0.00 0.00 0.00 90 1013.9
20260905100005 22 214 0.0 0.0 0.00 0.00 0.00 90 1014.0
20260905095504 22 214 0.0 0.0 0.00 0.00 0.00 90 1014.0
20260905095005 22 214 0.0 0.0 0.00 0.00 0.00 90 1014.0
20260905094506 22 214 0.0 0.0 0.00 0.00 0.00 90 1014.0
20260905094005 22 214 0.0 0.0 0.00 0.00 0.00 90 1013.7
20260905092505 22 214 0.0 0.0 0.00 0.00 0.00 90 1013.7
20260905092005 22 214 0.0 0.0 0.00 0.00 0.00 90 1013.7
20260905091505 22 214 0.0 0.0 0.00 0.00 0.00 90 1013.7
20260905091004 22 214 0.0 0.0 0.00 0.00 0.00 90 1013.6
20260905090006 22 214 0.0 1.6 0.00 0.00 0.00 89 1013.7
20260905085505 22 214 0.0 1.6 0.00 0.00 0.00 89 1013.7
20260905085005 22 214 0.0 1.6 0.00 0.00 0.00 89 1013.7
20260905084505 22 214 0.0 1.6 0.00 0.00 0.00 89 1013.7
20260905084005 22 214 0.0 1.6 0.00 0.00 0.00 90 1013.7
20260905083506 22 214 0.0 0.0 0.00 0.00 0.00 90 1013.7
20260905083006 22 214 0.0 0.0 0.00 0.00 0.00 90 1013.7
20260905082505 22 214 0.0 0.0 0.00 0.00 0.00 90 1013.7
20260905082005 22 214 0.0 0.0 0.00 0.00 0.00 89 1013.7
20260905081505 22 214 0.0 0.0 0.00 0.00 0.00 89 1013.7
20260905080505 22 214 0.0 0.0 0.00 0.00 0.00 89 1013.7
20260905075505 22 214 0.0 0.0 0.00 0.00 0.00 89 1013.6
20260905075005 22 214 0.0 0.0 0.00 0.00 0.00 89 1013.6
20260905074505 23 214 0.0 0.0 0.00 0.00 0.00 89 1013.6
20260905073505 23 214 0.0 0.0 0.00 0.00 0.00 89 1013.6
20260905073005 23 214 0.0 0.0 0.00 0.00 0.00 89 1013.4
20260905072505 23 214 0.0 0.0 0.00 0.00 0.00 89 1013.4
20260905071505 23 214 0.0 1.6 0.00 0.00 0.00 89 1013.4
20260905071005 23 214 0.0 1.6 0.00 0.00 0.00 89 1013.2
20260905070505 23 214 0.0 0.0 0.00 0.00 0.00 89 1013.2
20260905065505 23 214 0.0 0.0 0.00 0.00 0.00 89 1013.2
20260905065005 23 214 0.0 1.6 0.00 0.00 0.00 89 1013.2
20260905064505 23 214 0.0 3.2 0.00 0.00 0.00 89 1013.3
20260905064005 23 214 1.6 3.2 0.00 0.00 0.00 89 1013.6
20260905063504 23 214 0.0 3.2 0.00 0.00 0.00 89 1013.6
20260905063005 23 214 0.0 0.0 0.00 0.00 0.00 89 1013.6
20260905062504 23 214 0.0 0.0 0.00 0.00 0.00 89 1013.6
20260905062005 23 214 0.0 1.6 0.00 0.00 0.00 89 1013.6
20260905061506 23 214 0.0 0.0 0.00 0.00 0.00 89 1014.0
20260905061006 23 214 0.0 1.6 0.00 0.00 0.00 89 1014.0
20260905060506 23 214 0.0 1.6 0.00 0.00 0.00 89 1014.0
20260905060004 23 214 0.0 0.0 0.00 0.00 0.00 88 1014.1
20260905055505 23 214 0.0 0.0 0.00 0.00 0.00 88 1014.1
20260905055004 23 214 0.0 0.0 0.00 0.00 0.00 88 1014.2
20260905054505 24 214 0.0 0.0 0.00 0.00 0.00 89 1014.2
20260905054005 24 214 0.0 0.0 0.00 0.00 0.00 89 1014.2
20260905053506 24 214 0.0 0.0 0.00 0.00 0.00 88 1014.2
20260905053006 24 214 0.0 0.0 0.00 0.00 0.00 88 1014.2
20260905052504 24 214 0.0 0.0 0.00 0.00 0.00 88 1014.2
20260905052006 24 214 0.0 1.6 0.00 0.00 0.00 88 1014.1
20260905051505 24 214 0.0 1.6 0.00 0.00 0.00 88 1014.2
20260905051005 24 214 0.0 1.6 0.00 0.00 0.00 88 1014.2
20260905050504 24 214 0.0 1.6 0.00 0.00 0.00 88 1014.2
20260905050004 24 214 0.0 1.6 0.00 0.00 0.00 88 1014.6
20260905045505 25 214 0.0 0.0 0.00 0.00 0.00 88 1014.6
20260905045005 25 214 0.0 0.0 0.00 0.00 0.00 88 1014.6
20260905044505 25 214 0.0 0.0 0.00 0.00 0.00 88 1014.6
20260905043505 25 214 0.0 0.0 0.00 0.00 0.00 88 1014.6
20260905043005 25 214 0.0 1.6 0.00 0.00 0.00 87 1014.6
20260905042504 25 214 0.0 1.6 0.00 0.00 0.00 87 1014.6
20260905042005 25 214 0.0 0.0 0.00 0.00 0.00 87 1014.6
20260905040505 25 214 0.0 0.0 0.00 0.00 0.00 87 1014.6
20260905040005 25 214 0.0 0.0 0.00 0.00 0.00 87 1014.6
20260905035505 25 214 0.0 0.0 0.00 0.00 0.00 86 1014.6
20260905035005 25 214 0.0 0.0 0.00 0.00 0.00 86 1014.7
20260905034504 25 214 0.0 0.0 0.00 0.00 0.00 86 1014.7
20260905034005 25 214 0.0 0.0 0.00 0.00 0.00 86 1014.7
20260905033505 26 214 0.0 0.0 0.00 0.00 0.00 86 1014.7
20260905033005 26 214 0.0 0.0 0.00 0.00 0.00 86 1015.0
20260905032505 26 214 0.0 0.0 0.00 0.00 0.00 86 1015.0
20260905032005 26 214 0.0 0.0 0.00 0.00 0.00 86 1015.0
20260905031505 26 214 0.0 0.0 0.00 0.00 0.00 86 1015.0
20260905031005 26 214 0.0 0.0 0.00 0.00 0.00 86 1015.0
20260905030505 26 214 0.0 0.0 0.00 0.00 0.00 85 1015.0
20260905030004 26 214 0.0 0.0 0.00 0.00 0.00 85 1015.1
20260905025505 26 214 0.0 0.0 0.00 0.00 0.00 85 1015.1
20260905025006 26 214 0.0 0.0 0.00 0.00 0.00 85 1015.1
20260905024504 26 214 0.0 0.0 0.00 0.00 0.00 85 1015.1
20260905024005 26 214 0.0 0.0 0.00 0.00 0.00 85 1015.1
20260905023505 26 214 0.0 1.6 0.00 0.00 0.00 85 1015.1
20260905023005 27 214 0.0 0.0 0.00 0.00 0.00 84 1015.1
20260905022005 27 214 0.0 1.6 0.00 0.00 0.00 84 1015.1
20260905021505 27 214 0.0 0.0 0.00 0.00 0.00 84 1015.1
20260905021005 27 214 0.0 0.0 0.00 0.00 0.00 83 1015.1
20260905020505 27 214 0.0 0.0 0.00 0.00 0.00 83 1015.1
20260905020005 27 214 0.0 0.0 0.00 0.00 0.00 83 1015.1
20260905015506 27 214 0.0 3.2 0.00 0.00 0.00 82 1015.1
20260905015005 27 214 0.0 0.0 0.00 0.00 0.00 82 1014.8
20260905014505 28 214 0.0 0.0 0.00 0.00 0.00 82 1014.8
20260905014005 28 214 0.0 0.0 0.00 0.00 0.00 81 1014.8
20260905013505 28 214 0.0 0.0 0.00 0.00 0.00 81 1014.8
20260905013006 28 214 0.0 0.0 0.00 0.00 0.00 81 1014.7
20260905012505 28 214 0.0 0.0 0.00 0.00 0.00 80 1014.7
20260905012006 28 214 0.0 0.0 0.00 0.00 0.00 80 1014.7
20260905011506 28 214 0.0 1.6 0.00 0.00 0.00 79 1014.7
20260905011004 28 214 0.0 0.0 0.00 0.00 0.00 79 1014.7
20260905010506 29 214 0.0 0.0 0.00 0.00 0.00 78 1014.7
20260905010005 29 214 0.0 1.6 0.00 0.00 0.00 78 1014.7
20260905005505 29 214 0.0 0.0 0.00 0.00 0.00 77 1014.7
20260905005005 29 214 0.0 1.6 0.00 0.00 0.00 76 1014.7
20260905004506 30 214 1.6 3.2 0.00 0.00 0.00 76 1014.7
20260905004005 30 130 0.0 0.0 0.00 0.00 0.00 75 1014.7
20260905003506 30 130 0.0 0.0 0.00 0.00 0.00 74 1014.7
20260905003005 30 130 0.0 0.0 0.00 0.00 0.00 73 1014.6
20260905002505 30 130 0.0 0.0 0.00 0.00 0.00 72 1014.6
20260905002006 31 130 0.0 0.0 0.00 0.00 0.00 72 1014.5
20260905001505 31 130 0.0 1.6 0.00 0.00 0.00 72 1014.5
20260905001005 31 130 0.0 0.0 0.00 0.00 0.00 72 1014.2
20260905000505 31 130 0.0 0.0 0.00 0.00 0.00 71 1014.2
20260905000005 32 130 0.0 1.6 0.00 0.00 0.00 70 1014.2
20260904235505 32 131 0.0 0.0 0.00 0.00 0.00 69 1014.2
20260904234505 32 131 0.0 0.0 0.00 0.00 0.00 68 1014.2
20260904234005 32 131 0.0 0.0 0.00 0.00 0.00 67 1014.2
20260904233505 32 131 0.0 0.0 0.00 0.00 0.00 66 1014.2
20260904233005 33 131 0.0 0.0 0.00 0.00 0.00 65 1014.2
20260904232506 33 131 0.0 0.0 0.00 0.00 0.00 63 1014.2
20260904232005 33 131 0.0 0.0 0.00 0.00 0.00 62 1014.2
20260904231005 33 131 0.0 1.6 0.00 0.00 0.00 60 1014.1
20260904230006 33 131 0.0 0.0 0.00 0.00 0.00 57 1013.9
20260904223506 33 131 0.0 1.6 0.00 0.00 0.00 55 1013.7
20260904223005 33 131 0.0 3.2 0.00 0.00 0.00 54 1013.7
20260904222004 33 131 0.0 3.2 0.00 0.00 0.00 55 1013.8
20260904221505 33 124 1.6 3.2 0.00 0.00 0.00 54 1013.8
20260904221006 33 306 0.0 1.6 0.00 0.00 0.00 54 1013.8
20260904220505 33 150 1.6 1.6 0.00 0.00 0.00 53 1013.8
20260904220005 33 122 0.0 4.8 0.00 0.00 0.00 54 1014.1
20260904215506 33 108 1.6 4.8 0.00 0.00 0.00 54 1014.1
20260904215005 33 112 1.6 4.8 0.00 0.00 0.00 54 1014.1
20260904214506 33 29 0.0 1.6 0.00 0.00 0.00 53 1014.1
20260904214005 33 29 0.0 3.2 0.00 0.00 0.00 53 1014.1
20260904213506 33 29 0.0 3.2 0.00 0.00 0.00 53 1014.1
20260904213006 33 44 1.6 3.2 0.00 0.00 0.00 52 1014.1
20260904212505 33 36 1.6 4.8 0.00 0.00 0.00 52 1014.1
20260904212004 33 29 1.6 4.8 0.00 0.00 0.00 54 1014.2
20260904211505 33 5 0.0 3.2 0.00 0.00 0.00 53 1014.2
20260904210505 34 33 3.2 4.8 0.00 0.00 0.00 52 1014.2
20260904205505 34 64 0.0 3.2 0.00 0.00 0.00 52 1014.2
20260904205005 34 103 3.2 4.8 0.00 0.00 0.00 53 1014.2
20260904204505 34 11 3.2 8.0 0.00 0.00 0.00 52 1014.5
20260904204005 34 12 1.6 4.8 0.00 0.00 0.00 53 1014.5
20260904203005 34 57 1.6 11.3 0.00 0.00 0.00 53 1014.6
20260904202504 34 291 1.6 11.3 0.00 0.00 0.00 52 1014.6
20260904201505 35 180 3.2 12.9 0.00 0.00 0.00 52 1014.9
20260904201006 34 351 1.6 4.8 0.00 0.00 0.00 52 1014.9
20260904200505 34 13 3.2 8.0 0.00 0.00 0.00 52 1014.9
20260904200005 35 9 1.6 4.8 0.00 0.00 0.00 52 1015.1
20260904195504 35 162 3.2 8.0 0.00 0.00 0.00 53 1015.1
20260904195006 34 123 1.6 4.8 0.00 0.00 0.00 56 1015.1
20260904194505 34 15 3.2 8.0 0.00 0.00 0.00 55 1015.1
20260904194005 34 229 1.6 8.0 0.00 0.00 0.00 55 1015.2
20260904193506 34 114 1.6 8.0 0.00 0.00 0.00 55 1015.2
20260904192504 33 15 1.6 3.2 0.00 0.00 0.00 55 1015.4
20260904192005 35 62 1.6 4.8 0.00 0.00 0.00 56 1015.6
20260904191006 34 100 1.6 4.8 0.00 0.00 0.00 55 1015.8
20260904190505 34 145 4.8 11.3 0.00 0.00 0.00 53 1015.8
20260904190005 34 108 4.8 8.0 0.00 0.00 0.00 55 1016.0
20260904185504 34 22 1.6 4.8 0.00 0.00 0.00 58 1016.0
20260904185005 33 11 3.2 9.7 0.00 0.00 0.00 54 1016.0
20260904184505 33 31 1.6 4.8 0.00 0.00 0.00 56 1016.2
20260904182505 33 224 1.6 4.8 0.00 0.00 0.00 57 1016.6
20260904181505 33 79 3.2 9.7 0.00 0.00 0.00 58 1016.6
20260904181005 33 13 3.2 4.8 0.00 0.00 0.00 60 1016.8
20260904180505 33 30 1.6 4.8 0.00 0.00 0.00 61 1016.8
20260904180005 33 11 4.8 11.3 0.00 0.00 0.00 57 1016.9
20260904175504 33 93 1.6 3.2 0.00 0.00 0.00 62 1016.9
20260904175005 32 347 3.2 4.8 0.00 0.00 0.00 62 1016.9
20260904174506 32 355 0.0 3.2 0.00 0.00 0.00 63 1016.9
20260904174005 32 357 1.6 4.8 0.00 0.00 0.00 62 1016.9
20260904173506 32 5 3.2 4.8 0.00 0.00 0.00 62 1016.9
20260904173006 32 1 1.6 4.8 0.00 0.00 0.00 62 1017.2
20260904172505 32 17 3.2 4.8 0.00 0.00 0.00 63 1017.2
20260904171506 33 101 1.6 4.8 0.00 0.00 0.00 62 1017.2
20260904171005 33 151 1.6 8.0 0.00 0.00 0.00 57 1017.4
20260904170004 33 94 3.2 11.3 0.00 0.00 0.00 60 1017.4
20260904165004 33 183 1.6 3.2 0.00 0.00 0.00 61 1017.4
20260904164505 32 167 1.6 4.8 0.00 0.00 0.00 62 1017.4
20260904164004 32 305 1.6 4.8 0.00 0.00 0.00 64 1017.6
20260904163505 32 70 1.6 4.8 0.00 0.00 0.00 64 1017.6
20260904161504 32 16 3.2 8.0 0.00 0.00 0.00 64 1017.9
20260904161006 31 355 1.6 4.8 0.00 0.00 0.00 64 1017.9
20260904160005 31 106 3.2 9.7 0.00 0.00 0.00 67 1017.9
20260904155505 31 11 3.2 9.7 0.00 0.00 0.00 65 1017.9
20260904155004 31 20 3.2 9.7 0.00 0.00 0.00 66 1017.9